Theta_e
338 337 337 343 348 350 349 350 349 350 349 348 348 349 349 349 348 348 346 347 346 346 343 343 342 342 341 342 341 341 340 340 341 342 342 343 343 343 344 344 344 345 344 343 343 344 343 342 342 342 342 340 341 341 341 341 341 340 339 340 341 341 341 339 340 340 341 339 340 340 340 342 343 343 343 342 342 341 340 341 340 337 336 339 342
337 337 337 338 349 349 349 349 349 349 349 349 349 349 348 348 347 346 345 345 344 344 344 343 342 341 341 341 341 341 341 340 340 341 342 342 342 342 342 342 343 343 342 341 340 341 341 341 341 341 340 342 341 342 341 340 340 338 338 339 339 340 341 341 341 340 340 339 338 338 339 339 340 341 341 341 341 340 340 340 339 335 335 340 341
337 337 337 340 349 350 350 348 349 350 350 350 349 348 347 347 347 346 346 346 345 344 343 343 342 342 341 340 340 340 340 339 341 341 342 342 343 343 343 343 341 340 340 340 339 340 340 340 340 340 341 341 341 340 339 339 338 337 337 337 339 340 340 339 339 339 339 338 338 339 340 338 337 338 340 340 340 339 339 339 338 338 334 340 342
337 338 339 341 346 349 350 349 349 349 349 349 348 348 347 347 347 347 346 344 345 345 344 342 342 342 342 339 338 337 336 337 343 345 347 346 346 345 343 341 338 337 337 338 339 340 339 340 340 341 341 340 337 337 335 335 337 338 337 337 339 339 338 338 338 338 338 338 337 336 333 331 334 338 341 340 341 341 342 342 343 343 343 343 343
337 339 340 342 342 346 349 350 349 349 349 349 348 347 348 347 347 346 346 345 345 344 343 342 341 341 341 340 338 338 338 344 345 346 346 346 345 344 342 340 338 337 336 340 340 340 339 340 340 341 341 339 337 337 336 336 336 337 337 338 339 339 339 338 337 337 336 336 335 332 327 329 332 336 338 339 342 343 342 342 342 342 341 341 342
338 340 341 341 341 346 348 349 349 349 349 349 347 348 347 347 347 346 346 345 345 344 344 343 342 341 341 340 341 340 343 343 342 344 346 346 345 344 343 342 339 337 337 338 338 337 339 340 340 340 339 339 338 338 338 337 337 336 337 339 339 339 339 339 339 337 336 334 332 326 326 329 331 332 340 343 342 341 341 341 341 341 341 342 341
341 343 343 340 341 345 347 349 350 349 349 349 348 348 347 347 347 346 346 345 345 344 343 342 342 342 341 340 340 339 338 340 344 346 345 345 344 343 340 337 336 335 337 337 338 339 339 340 340 341 339 338 337 338 338 338 338 338 338 339 339 339 339 338 337 337 335 330 327 327 330 334 334 336 341 342 342 342 340 342 342 342 342 342 341
342 344 343 341 342 345 346 349 350 349 349 349 348 348 347 347 347 346 346 345 345 344 343 342 342 342 341 337 337 340 341 342 344 345 344 344 344 343 342 340 338 337 338 338 338 339 340 339 339 340 340 339 339 340 339 339 339 339 340 340 339 339 338 337 336 335 335 329 329 329 331 332 334 334 342 342 341 341 340 340 341 341 342 340 337
341 344 343 340 341 344 346 347 350 349 349 349 348 348 347 347 346 346 345 345 345 344 343 343 342 342 341 340 338 340 341 342 343 344 345 344 343 341 339 337 335 334 335 335 337 338 338 338 339 339 340 340 338 338 339 339 339 339 340 339 339 338 337 336 335 333 331 330 330 330 331 331 333 334 339 339 341 341 339 338 339 340 339 337 337
342 344 342 340 341 342 345 347 349 349 349 349 348 347 347 347 346 346 345 345 344 344 342 342 342 341 341 341 340 339 340 343 344 344 343 343 343 341 339 336 334 333 336 335 336 337 338 338 338 339 340 340 340 339 339 339 338 339 339 339 338 337 336 335 333 332 329 329 330 332 333 335 332 333 338 341 341 340 337 334 335 335 335 336 336
342 343 341 339 341 342 346 349 349 349 349 349 348 347 347 347 346 346 345 344 344 344 343 342 342 342 341 340 341 339 342 343 343 342 342 342 341 340 338 335 334 333 335 337 338 337 338 338 338 339 339 339 338 337 338 338 338 338 337 336 336 335 334 333 330 327 328 328 329 330 334 336 333 335 340 340 339 337 336 335 335 336 336 336 336
341 343 340 338 343 341 346 347 348 349 349 348 348 347 347 346 346 346 345 344 344 344 343 342 342 342 341 340 339 338 338 338 338 340 340 339 338 338 336 335 334 334 334 336 337 337 337 338 338 339 337 337 337 337 337 337 336 336 335 335 334 333 331 329 325 326 326 327 328 329 329 330 330 333 338 337 337 338 336 336 336 336 336 336 335
341 342 340 340 340 341 344 347 347 348 349 348 348 347 347 346 346 346 345 345 344 343 342 342 341 340 340 340 339 338 338 337 337 336 337 337 336 335 335 334 334 334 334 334 335 336 336 337 338 338 336 336 335 336 336 336 336 335 335 334 333 332 330 328 323 324 325 327 329 330 329 330 331 336 338 338 338 337 336 336 336 335 335 333 332
341 342 341 342 341 344 341 343 344 347 348 348 348 347 347 346 346 345 345 345 344 343 343 342 342 341 340 339 339 338 337 337 337 336 336 336 335 335 336 335 334 334 334 335 335 335 335 337 338 338 337 336 335 336 336 335 335 335 334 334 332 331 327 326 326 321 322 324 327 327 328 330 331 337 336 338 337 336 334 335 334 333 331 330 330
340 341 342 342 342 342 342 339 343 343 345 347 347 347 347 346 346 345 345 345 344 343 343 342 341 341 340 339 339 338 337 336 336 336 336 335 335 335 334 334 334 334 334 333 334 334 335 337 338 338 337 336 335 336 335 335 334 334 333 331 331 328 326 322 321 320 321 323 323 325 328 330 335 336 336 336 336 334 333 333 333 331 328 328 328
341 341 342 342 343 341 341 341 338 338 342 344 345 345 346 346 346 346 345 345 344 343 343 342 341 341 340 339 339 338 338 337 336 336 335 335 334 334 334 334 334 333 333 333 333 334 335 336 336 336 336 336 335 335 334 333 333 332 331 330 328 327 324 322 320 320 320 322 323 324 325 330 334 335 335 333 332 331 330 330 329 327 326 327 326
340 341 342 342 342 342 341 341 338 335 336 337 340 341 343 345 345 346 345 345 344 343 343 342 341 340 340 340 339 340 339 337 336 335 335 335 334 334 334 333 334 333 333 333 333 334 334 335 335 335 335 335 334 334 333 332 331 329 328 328 327 325 323 322 321 321 322 324 325 325 326 328 332 334 334 331 331 330 328 327 327 326 326 325 325
339 340 341 341 341 342 342 342 339 338 339 335 334 338 341 343 344 343 343 343 343 343 342 342 341 340 340 339 338 339 338 337 336 335 335 335 334 335 334 334 333 333 333 334 334 333 333 334 334 335 334 334 333 333 331 331 330 328 326 325 324 323 323 322 321 321 323 325 324 326 328 332 333 333 333 331 330 329 328 327 327 326 326 325 324
338 339 341 340 341 341 341 340 338 339 338 337 337 337 335 339 341 341 341 342 342 341 341 339 339 340 339 337 336 335 333 334 334 335 335 334 333 332 334 334 334 333 333 334 333 333 333 333 334 334 333 332 332 331 330 329 328 326 324 322 320 319 319 320 321 322 323 324 324 325 328 332 333 334 333 330 329 328 327 326 325 325 323 323 324
337 337 339 340 340 340 339 338 339 339 337 335 336 337 333 333 337 338 339 339 340 339 337 335 334 333 333 332 330 329 327 327 326 328 330 334 332 329 332 333 333 332 332 333 331 332 332 332 332 332 331 331 330 329 328 327 326 324 322 320 318 317 316 317 320 322 323 324 326 326 330 331 334 334 333 332 330 328 326 325 325 324 324 324 323
336 336 337 338 339 338 338 337 338 339 336 335 335 336 335 330 332 332 334 336 337 336 335 329 326 325 326 323 324 327 325 324 324 324 323 325 324 326 331 333 332 331 331 331 331 332 331 331 330 330 328 326 324 324 324 325 323 322 319 317 315 314 314 317 321 323 324 325 326 328 331 331 333 335 333 330 327 327 327 326 326 324 323 323 322
333 334 335 337 337 337 337 337 338 338 337 337 338 337 334 333 335 335 335 333 330 329 329 329 328 326 322 324 325 324 324 323 322 325 322 324 324 324 328 332 332 332 331 330 330 331 331 330 329 327 324 321 317 312 313 317 319 318 316 314 312 312 314 317 319 322 324 325 327 329 330 333 332 333 332 330 329 326 325 323 323 323 322 321 320
332 333 334 335 336 337 337 337 338 338 338 338 338 337 335 335 334 335 334 330 330 329 329 327 327 326 325 325 323 324 322 322 321 321 321 322 324 324 328 329 331 330 330 329 329 329 329 328 325 323 320 316 310 308 308 309 310 313 312 311 310 312 314 315 315 318 321 323 326 328 329 330 331 332 331 329 329 326 325 323 322 321 321 320 320
333 333 334 335 336 335 336 338 338 338 338 338 337 336 336 335 335 335 335 334 332 331 329 327 326 326 325 324 323 322 321 321 323 322 321 321 322 322 325 326 327 326 326 326 326 326 325 323 320 317 313 309 307 307 307 306 307 308 308 308 310 310 311 312 312 314 316 322 326 328 329 329 330 330 329 327 326 324 323 323 322 321 320 319 318
335 335 334 334 335 335 335 336 337 337 337 338 337 336 336 337 337 337 336 335 334 332 330 328 326 326 324 323 323 321 320 320 319 319 320 320 321 322 323 323 324 320 315 311 311 311 310 307 307 307 306 306 306 305 306 306 306 306 306 306 307 309 309 309 310 311 313 321 324 325 327 327 327 327 326 325 324 323 321 321 321 320 319 319 318
333 334 334 335 335 335 335 336 336 337 337 337 337 336 335 337 337 337 336 335 335 334 332 330 328 326 324 323 321 321 320 319 319 319 319 320 321 320 320 320 318 315 311 307 305 305 305 305 305 304 303 304 304 304 304 304 304 304 304 305 306 306 307 307 307 307 308 311 320 323 325 326 325 326 326 325 323 322 320 321 321 320 319 318 318
331 334 336 336 336 335 334 335 335 336 337 338 338 336 335 338 338 337 336 334 336 335 333 332 330 328 324 322 321 320 319 319 319 318 318 319 320 319 318 317 316 313 309 306 304 304 303 303 303 303 303 303 303 303 303 303 303 303 303 303 303 304 304 304 304 304 304 307 312 320 324 326 325 323 322 323 324 322 321 320 320 319 319 318 317
330 332 335 336 335 335 335 334 335 336 336 338 338 336 336 338 338 335 336 334 335 335 334 333 331 329 326 323 321 320 319 319 318 318 317 317 318 318 317 315 314 313 309 305 303 302 302 302 302 302 303 302 302 302 303 303 303 302 301 301 301 301 301 302 301 300 301 303 308 314 321 323 323 324 324 323 323 322 321 320 319 321 319 318 318
327 330 333 335 335 335 335 334 335 336 337 338 337 337 337 338 337 336 336 331 336 336 336 334 331 330 328 325 321 320 319 319 318 318 317 316 316 316 315 314 313 311 308 304 303 302 301 301 302 301 302 302 302 302 302 302 302 301 300 299 299 299 299 299 299 298 299 300 302 310 320 323 324 323 323 323 324 323 321 320 319 319 319 318 317
325 330 331 333 335 336 335 334 335 336 337 338 337 336 337 337 337 336 337 333 336 337 336 335 333 331 328 327 323 322 320 319 318 318 317 315 315 314 314 313 312 311 308 304 303 302 301 300 300 300 301 301 301 301 302 301 300 300 299 298 297 297 296 296 297 297 297 297 299 303 312 317 322 322 320 321 322 321 320 320 318 318 318 318 317
321 324 329 331 333 334 334 334 335 334 337 337 337 337 336 337 337 337 337 335 336 336 336 335 334 332 330 328 325 323 322 321 319 318 317 315 314 314 313 312 311 310 308 305 303 302 301 301 300 300 300 300 299 299 300 300 299 298 298 298 297 296 295 295 295 295 295 295 296 298 302 310 316 321 322 321 320 319 319 319 319 319 318 317 317
319 321 325 329 330 332 334 334 334 334 335 337 336 337 336 337 337 337 336 336 336 336 336 336 332 333 332 329 326 324 322 321 320 319 318 315 314 313 313 311 311 311 309 305 303 301 300 299 299 300 300 299 298 298 300 300 298 298 297 296 295 295 294 293 293 293 293 293 294 295 297 300 308 314 319 320 320 320 319 320 319 319 319 318 317
319 321 322 323 326 329 332 333 334 333 333 335 336 336 336 337 337 336 336 335 336 336 335 335 335 334 333 331 328 325 322 321 321 320 317 317 315 314 313 312 311 312 309 306 303 301 299 299 298 298 298 299 299 298 299 299 297 296 295 294 293 293 292 293 292 292 291 291 291 292 293 295 296 303 309 317 319 318 318 317 317 317 318 318 317
318 319 319 321 324 327 329 331 332 332 332 334 335 335 335 336 336 337 335 335 336 335 334 336 335 335 334 332 330 326 323 322 321 320 319 317 316 315 314 313 313 314 310 306 304 301 299 298 297 298 299 299 299 298 298 296 294 294 293 292 292 291 291 291 290 290 289 290 290 291 291 292 292 294 296 305 312 317 317 316 316 316 316 315 314
316 316 318 320 321 324 326 329 329 331 330 332 332 334 334 334 334 335 335 335 335 335 335 335 335 335 334 333 331 328 325 323 322 321 319 318 316 314 314 313 314 315 311 307 304 302 300 298 298 298 297 297 296 297 296 294 293 292 291 292 291 291 290 290 290 290 289 288 289 289 289 290 291 291 292 292 299 306 315 316 316 315 315 314 314
317 317 318 319 320 322 323 325 326 329 330 330 331 332 331 332 333 329 334 334 334 335 335 335 335 335 334 333 332 330 327 326 323 321 319 318 317 315 315 313 314 315 311 307 305 301 300 299 299 299 296 294 295 293 293 292 292 291 291 290 290 290 289 289 289 289 288 288 288 288 288 288 289 290 292 289 291 297 308 314 316 314 314 315 315
317 317 317 318 319 320 321 323 324 326 328 328 328 328 328 328 329 331 333 332 333 333 334 334 334 334 334 334 333 331 329 328 325 322 320 319 317 315 315 313 314 315 312 308 305 302 300 299 298 298 298 295 295 293 292 292 291 290 289 289 289 289 288 288 288 288 289 287 286 286 287 287 289 290 285 286 287 288 299 308 310 312 315 313 313
316 317 318 319 320 320 320 321 324 324 326 326 326 327 327 326 325 326 327 331 332 333 333 334 334 334 334 333 333 332 329 330 328 324 322 320 319 317 316 314 314 315 312 308 305 303 301 300 297 297 297 296 295 294 292 291 291 290 288 288 289 288 287 288 289 290 287 287 285 285 284 284 285 284 285 285 285 287 288 295 302 305 308 313 312
314 316 317 318 318 318 319 318 320 322 323 323 322 322 322 322 321 322 325 328 330 331 331 331 333 333 333 333 332 332 329 330 329 327 323 321 320 319 317 316 315 315 312 309 306 304 302 300 298 296 297 297 296 294 293 291 290 290 288 287 288 288 288 289 288 287 286 286 288 288 285 284 283 283 284 283 284 284 286 286 288 290 297 308 311
311 314 315 315 317 317 317 318 318 320 319 319 319 319 319 320 320 317 320 324 327 326 327 329 330 331 331 332 332 332 330 330 331 329 326 322 321 320 319 318 316 314 311 309 306 303 301 299 298 296 295 294 295 293 292 291 290 289 288 287 287 288 288 287 287 286 287 284 285 286 283 283 283 282 282 282 283 283 284 284 287 286 289 298 305
307 311 314 314 316 318 317 317 318 317 319 318 317 319 319 317 315 319 321 323 323 324 324 325 327 330 330 330 330 331 331 330 329 329 328 322 322 322 319 318 317 315 312 310 308 304 302 300 298 296 294 292 291 292 292 291 289 289 287 286 286 288 289 287 286 286 286 284 285 285 285 283 282 281 281 282 282 282 282 283 283 284 286 286 290
307 309 312 315 316 316 316 317 315 316 318 320 319 319 320 321 321 320 319 317 319 321 323 323 324 323 325 327 328 329 329 328 327 329 327 326 324 322 320 318 317 315 313 312 309 303 301 300 298 296 296 294 291 291 291 291 289 288 284 284 284 286 289 286 286 286 286 286 285 285 285 283 282 281 281 281 281 281 281 281 282 283 283 285 285
306 308 311 311 311 314 315 315 315 316 317 318 318 318 317 315 316 311 317 308 308 316 318 318 317 320 320 322 324 327 328 328 328 325 327 327 325 323 321 319 317 314 312 310 307 304 302 300 298 296 293 293 292 292 291 293 289 288 287 285 285 283 286 285 285 285 286 285 286 285 285 283 281 281 281 281 281 281 282 281 281 282 282 283 283
301 303 308 311 312 313 314 314 314 315 316 315 315 314 312 309 306 303 307 310 307 306 314 313 315 316 318 318 320 323 325 326 327 327 326 326 324 322 321 320 318 316 314 311 307 304 302 300 299 298 295 292 290 290 291 292 290 288 285 288 284 284 283 283 281 283 285 285 285 284 285 283 281 280 281 280 280 280 280 281 281 281 281 281 282
303 305 307 310 313 313 314 314 314 313 313 311 312 309 307 304 301 302 302 305 305 305 307 310 314 316 314 316 318 318 321 324 326 326 324 326 325 324 321 320 318 316 314 312 308 306 303 301 299 298 295 294 290 289 290 291 291 294 290 285 285 284 283 282 282 282 284 284 284 284 284 283 281 281 281 280 279 280 280 280 280 280 281 281 281
301 304 305 307 307 309 310 309 308 308 310 309 310 309 311 311 306 308 306 303 306 304 309 311 311 313 316 316 315 315 317 319 321 324 325 324 325 325 323 320 318 316 314 313 310 307 304 302 300 299 296 296 293 289 288 291 292 292 293 294 290 290 285 281 283 282 283 284 284 283 282 282 281 281 281 280 280 280 281 280 279 280 280 280 280
299 301 301 302 303 305 306 308 308 307 307 307 308 308 308 309 310 311 312 311 311 308 304 304 308 309 313 313 314 312 314 316 317 318 321 322 324 324 323 322 320 318 315 314 311 309 306 304 301 300 298 297 295 291 289 289 291 291 292 292 290 287 287 284 284 281 280 282 282 282 282 282 281 281 281 280 280 280 280 280 280 280 279 279 280
298 298 299 300 303 303 302 304 303 305 304 305 306 308 310 308 308 308 309 309 309 309 304 304 302 302 308 310 311 312 310 311 314 315 317 318 319 321 321 319 319 319 315 315 313 311 308 305 302 301 300 298 296 294 291 290 289 290 291 290 290 288 287 289 287 288 285 282 282 282 283 283 282 281 281 281 280 280 280 280 280 279 279 279 280
297 297 298 299 300 301 300 301 302 302 302 304 306 306 308 308 308 308 307 306 304 302 297 299 303 300 303 304 309 310 310 309 310 312 314 316 315 317 318 318 318 316 312 314 314 311 308 305 302 301 300 299 297 297 294 292 291 292 290 289 290 289 288 288 288 288 285 284 284 282 282 282 282 282 281 281 280 280 281 281 281 281 281 281 280
295 296 297 298 298 298 299 300 300 301 301 302 304 305 305 305 306 305 306 305 300 297 297 300 300 298 303 302 304 307 309 308 308 309 310 312 313 313 315 316 316 315 311 313 312 310 308 305 303 302 301 299 298 297 296 295 293 294 293 291 288 287 286 284 286 286 284 286 286 282 283 281 280 282 282 281 280 280 280 280 281 281 280 280 280
293 295 297 297 296 297 297 299 300 299 299 302 302 304 304 304 306 305 305 305 301 300 299 298 298 298 302 302 301 302 303 307 308 307 308 309 311 311 312 313 314 312 310 312 311 310 308 306 304 303 302 301 299 298 297 296 295 294 293 292 291 289 289 287 285 285 286 283 283 284 282 282 282 282 282 282 281 280 280 280 280 281 280 280 280
Wind_Speed
6 5 3 2 5 8 10 11 12 13 13 14 13 13 13 13 14 13 13 13 14 14 14 14 15 15 15 14 14 14 14 14 15 14 15 15 14 15 16 18 18 18 18 17 17 18 18 18 17 17 18 18 18 19 19 18 18 17 17 17 18 18 17 18 19 18 17 17 18 18 19 19 19 20 19 20 21 20 16 17 15 12 11 16 22
9 5 3 2 6 9 11 11 12 12 13 13 13 13 13 14 13 13 12 13 13 13 14 14 15 15 15 14 14 14 14 14 14 14 14 14 14 14 15 16 18 19 17 15 16 17 17 17 17 17 17 18 19 18 18 18 18 17 18 18 19 18 17 17 16 15 17 16 17 17 18 20 20 20 20 20 20 19 16 16 17 11 9 19 21
7 5 3 3 5 7 10 11 12 13 13 12 13 13 13 13 13 12 12 14 14 13 13 13 14 15 15 14 14 13 13 13 14 13 14 13 14 17 17 18 17 17 15 15 17 17 16 17 17 16 17 19 19 19 18 18 19 19 19 19 18 17 17 16 16 15 14 15 17 17 17 19 19 19 20 20 19 18 15 16 15 15 13 22 19
8 5 3 4 4 5 8 10 11 12 13 13 13 13 13 13 13 13 13 12 13 13 13 13 13 14 14 14 13 13 13 12 15 15 16 18 17 18 18 17 17 16 14 17 18 17 17 16 17 17 18 19 18 17 18 18 19 18 19 18 17 16 16 15 14 13 12 11 10 7 5 7 12 19 20 20 20 20 18 20 22 22 22 20 22
7 5 4 3 3 3 9 10 12 12 13 13 12 13 13 13 13 13 12 12 12 13 13 13 13 13 14 14 13 13 13 15 16 16 16 16 16 17 18 17 17 16 15 18 17 17 17 16 16 17 19 19 19 19 19 18 18 17 17 17 16 15 15 14 14 13 13 11 10 6 5 6 7 17 18 20 20 19 19 21 21 22 21 22 23
7 5 4 3 3 3 10 10 12 12 13 13 12 12 13 13 13 12 12 12 12 13 13 13 13 12 13 14 12 11 15 15 14 14 16 16 17 18 19 19 19 16 16 18 17 17 16 16 16 17 18 17 18 18 19 18 18 17 17 16 16 16 15 15 15 14 13 12 10 6 6 5 6 9 21 20 21 19 21 22 22 20 21 24 24
8 5 4 3 3 6 9 10 12 13 13 13 13 12 13 12 13 13 12 13 13 13 13 13 12 12 12 12 12 12 12 13 15 16 16 17 17 17 17 18 18 16 17 17 16 16 16 15 17 18 17 17 17 17 18 18 18 17 16 16 16 16 16 15 14 13 12 7 6 6 7 9 7 8 21 21 21 21 22 23 22 23 24 23 22
6 5 4 3 4 7 10 11 12 13 13 14 13 12 13 13 12 12 13 12 13 13 13 12 12 12 12 12 11 14 13 13 15 15 17 17 18 19 20 20 17 15 16 17 17 16 16 16 17 17 18 17 17 17 18 17 17 17 17 16 16 16 15 15 14 13 12 7 6 6 7 8 8 7 19 21 22 23 22 23 22 23 23 23 18
7 6 4 4 4 9 10 10 13 13 14 14 13 13 13 13 12 12 12 12 13 13 13 12 12 12 12 11 11 13 13 13 14 16 17 16 17 17 18 19 16 15 16 15 16 16 15 16 16 16 17 17 17 17 17 17 16 16 16 16 16 15 15 14 12 11 7 6 7 7 7 6 7 8 18 22 23 23 20 18 20 23 23 20 22
7 6 4 3 4 9 10 10 13 14 15 14 13 14 14 13 13 12 12 12 12 13 13 12 12 12 11 11 11 13 14 14 15 16 16 16 16 17 17 17 16 13 16 16 15 16 15 15 15 16 17 18 17 17 17 17 17 16 16 16 15 15 14 13 12 8 6 6 7 6 8 10 6 8 19 24 24 23 21 20 17 17 17 22 25
9 7 4 4 5 8 11 12 11 11 14 14 13 14 14 13 13 12 12 12 12 12 12 12 11 12 12 12 12 11 14 15 15 15 16 17 17 17 16 16 15 13 15 16 15 15 15 15 15 15 16 17 17 16 17 17 17 16 16 15 15 14 14 12 9 6 7 7 7 7 10 14 8 9 21 24 24 23 20 20 20 20 22 24 24
10 6 4 3 6 9 10 11 11 13 13 13 14 13 14 13 13 12 12 12 12 12 12 12 11 11 11 12 12 12 12 13 12 14 15 15 15 15 16 16 14 14 15 16 15 15 14 15 16 16 17 16 17 17 17 17 16 16 15 15 14 13 12 11 7 6 6 7 6 6 5 8 8 14 24 22 22 24 23 23 22 23 23 24 25
9 7 5 4 4 8 10 11 11 12 12 13 14 13 13 14 13 13 12 12 12 12 12 11 11 11 11 11 12 12 12 12 12 11 12 13 13 15 15 16 14 14 15 15 15 14 14 15 15 17 17 16 16 16 16 16 16 15 14 14 13 13 12 10 6 6 6 5 5 5 6 6 9 19 21 23 24 23 23 23 23 24 25 25 24
8 7 6 5 4 8 9 10 11 12 12 12 13 13 13 13 13 13 13 13 12 12 12 11 11 11 11 11 11 12 12 13 13 13 13 14 14 15 16 15 14 15 15 15 14 14 14 15 16 17 18 17 16 15 16 16 15 15 14 13 13 12 10 7 6 5 5 5 4 5 5 6 8 19 22 22 22 23 22 24 25 25 24 23 22
9 8 6 5 5 5 9 9 10 11 12 12 12 12 14 13 13 13 13 13 12 12 12 12 11 11 10 11 11 12 12 12 12 12 12 13 14 15 15 15 14 14 14 15 13 14 14 15 16 17 18 17 17 16 16 16 16 15 14 13 15 13 10 5 5 5 5 5 4 4 5 6 16 21 24 24 23 22 23 24 24 24 23 22 22
9 8 7 6 6 5 5 7 9 10 11 11 11 11 12 12 12 13 13 13 13 13 13 13 12 11 11 11 11 11 12 12 12 12 13 13 14 14 15 15 15 15 15 15 14 14 14 15 16 17 17 17 17 16 16 16 16 14 14 16 14 13 10 6 5 5 5 4 3 3 4 6 18 21 23 24 24 23 22 22 22 21 21 21 22
8 7 7 7 6 6 6 5 6 9 10 10 10 11 11 11 12 13 12 12 12 13 13 13 13 13 12 11 11 10 11 12 13 13 12 13 13 14 14 15 14 15 15 14 14 14 14 16 16 16 16 17 17 17 16 16 16 15 15 14 13 12 10 8 6 5 6 5 5 5 5 6 18 22 24 24 24 24 23 23 22 21 20 20 20
7 8 8 7 6 6 6 5 5 6 5 8 9 10 11 11 12 12 12 12 13 12 12 12 12 12 11 10 9 9 11 12 12 12 12 13 11 10 13 15 14 14 14 14 14 14 14 15 16 16 16 17 17 16 16 16 15 15 14 13 13 12 10 9 6 5 6 6 6 4 5 12 21 23 24 23 24 23 22 22 21 21 21 22 21
6 8 8 8 7 6 6 5 6 5 5 5 4 7 10 10 11 11 11 11 12 11 11 10 10 10 10 10 10 9 9 9 10 10 10 9 9 10 12 13 14 14 15 14 14 14 14 15 16 16 16 16 16 16 16 15 14 14 14 12 11 11 12 7 5 6 6 5 5 5 6 17 23 25 25 23 23 23 22 22 21 20 19 20 21
5 6 7 7 7 7 6 6 5 6 5 5 5 5 8 10 10 11 11 11 11 11 11 10 10 10 10 10 10 8 8 7 9 8 9 9 8 6 10 11 14 14 15 15 14 15 15 15 16 16 16 16 16 15 15 14 14 14 12 12 11 12 8 5 6 6 6 5 5 5 11 11 23 23 24 25 24 23 22 21 21 20 20 20 20
4 6 7 7 7 7 7 6 6 7 5 5 5 5 7 9 9 11 11 10 11 11 11 11 10 9 9 8 8 6 5 5 6 5 8 4 6 8 9 11 13 13 15 14 14 14 14 15 15 16 16 15 14 14 13 14 13 13 12 10 11 8 6 6 6 5 5 5 5 7 12 15 20 24 24 24 22 21 22 22 21 20 20 19 19
6 6 6 7 7 6 7 7 6 7 6 5 5 4 5 7 6 6 6 8 9 9 8 7 7 5 8 7 4 4 5 5 5 5 4 5 6 8 9 10 11 11 13 14 14 14 15 16 15 16 16 14 12 8 7 10 12 12 10 11 8 5 6 6 6 5 5 5 5 7 16 17 21 22 24 23 22 21 20 20 19 19 19 19 19
8 7 6 8 7 8 7 8 8 7 7 6 5 5 6 5 5 6 6 7 7 7 6 7 5 6 5 5 5 5 4 4 5 5 4 6 6 9 9 9 10 11 12 15 16 17 16 16 16 15 14 12 8 6 5 5 6 10 10 8 6 6 6 6 5 5 5 4 5 9 13 19 21 23 23 22 21 20 20 21 20 18 18 18 17
10 9 9 6 7 7 9 9 8 8 8 6 5 6 6 5 5 5 5 5 6 6 6 5 5 6 6 5 5 4 4 5 6 9 7 4 4 8 10 10 10 11 10 8 12 14 15 15 15 13 8 5 6 5 5 5 5 5 6 6 6 6 6 5 5 4 4 3 5 11 15 19 21 23 21 20 20 20 20 19 19 18 17 17 17
8 6 6 8 9 8 8 9 8 7 8 7 7 7 6 5 5 5 6 6 6 5 5 5 6 6 6 5 5 5 5 5 5 5 5 5 4 4 6 5 5 5 8 5 5 6 7 7 7 7 5 5 6 5 5 5 5 5 6 6 6 5 5 5 4 4 4 4 5 11 15 18 19 19 18 18 18 18 18 18 17 17 16 16 17
5 7 9 8 9 9 9 8 8 8 8 7 8 8 8 6 6 6 6 6 6 6 6 6 6 6 5 5 5 6 6 5 5 5 5 5 5 5 5 5 5 5 5 6 5 5 5 5 6 6 5 5 6 5 5 4 4 5 6 5 5 5 5 5 5 5 4 4 3 13 13 13 15 17 19 18 17 16 15 16 16 16 16 16 16
7 9 8 7 9 9 9 8 9 8 9 8 7 7 8 7 7 6 7 7 6 7 6 6 6 6 6 6 7 6 6 6 5 5 5 5 6 5 5 5 5 5 5 6 5 4 5 5 5 6 5 6 5 5 5 6 5 4 4 5 5 5 5 5 5 5 4 4 5 5 11 16 18 16 14 15 19 17 16 16 16 15 16 18 16
6 9 9 8 8 11 10 10 10 9 9 8 8 7 8 7 7 7 8 8 7 7 7 7 7 7 6 6 6 6 7 6 6 6 5 5 6 5 5 5 5 5 5 6 6 5 5 5 5 5 6 5 6 5 5 5 5 5 5 5 4 4 5 5 4 4 4 5 5 7 13 14 14 16 16 15 15 16 16 14 15 15 15 15 15
9 10 9 10 10 10 10 11 11 11 9 9 9 7 8 7 7 7 8 8 8 7 7 8 8 7 7 7 6 7 6 6 7 6 5 6 5 6 6 5 5 5 6 5 6 6 6 5 5 5 5 5 5 5 5 5 5 5 6 5 4 4 4 4 4 4 4 5 5 7 8 12 12 14 15 17 17 17 15 14 13 14 14 14 14
13 10 10 10 9 10 11 12 12 11 10 9 8 8 9 9 8 9 7 8 8 8 8 8 8 8 7 8 8 8 8 7 7 6 7 6 6 5 6 6 6 5 6 7 5 6 7 6 5 5 5 5 5 4 5 6 5 5 5 6 4 4 4 3 3 4 3 5 5 6 12 7 10 11 14 15 16 15 14 14 13 14 14 14 14
9 12 12 11 10 10 11 12 12 10 9 10 9 9 9 9 8 8 8 8 8 7 7 7 8 8 8 9 9 8 8 7 7 7 6 6 6 6 6 5 6 5 5 6 5 6 6 7 7 7 6 6 5 4 5 6 5 4 4 6 5 4 4 4 3 3 4 5 5 5 7 12 10 10 13 14 13 12 14 14 14 14 15 13 13
12 15 13 10 10 13 13 12 11 10 10 11 9 9 10 10 9 8 9 9 9 8 7 7 7 8 9 9 9 8 8 8 9 8 8 8 7 7 6 6 6 5 5 6 6 5 6 5 5 5 6 6 6 5 4 6 6 4 5 6 5 5 4 4 3 3 3 4 5 5 5 6 10 11 9 14 13 15 14 14 14 14 15 14 13
12 14 11 9 13 13 12 13 11 10 11 12 11 9 8 9 9 8 8 9 9 8 8 8 7 8 9 10 10 10 9 9 9 10 9 8 8 8 7 7 7 6 6 7 8 6 6 6 5 5 6 6 7 6 4 5 6 4 4 4 5 6 4 4 3 3 3 3 4 4 5 4 4 9 12 6 13 14 13 13 12 13 13 13 13
10 7 7 12 12 8 9 9 11 13 13 10 9 9 9 7 8 7 7 8 8 9 8 8 8 8 9 11 11 10 9 9 10 9 9 9 8 9 9 8 8 8 8 8 8 7 7 7 7 6 5 6 6 7 7 6 4 4 4 3 4 4 4 4 3 3 2 3 2 4 5 5 5 5 5 10 11 6 13 12 12 11 12 12 11
7 7 13 13 9 10 8 9 11 13 11 11 11 10 8 8 7 7 7 8 8 8 8 8 8 8 8 9 11 11 11 10 10 10 9 9 9 9 9 9 9 9 8 7 8 8 8 9 8 8 5 4 4 4 6 6 6 6 4 3 4 4 5 4 3 4 3 3 2 3 4 5 5 5 4 5 6 11 7 10 13 11 13 12 11
12 11 9 7 10 10 9 10 10 12 12 12 10 9 8 8 7 6 6 7 7 8 7 9 8 9 9 8 10 11 11 11 11 10 10 9 9 8 8 6 8 8 8 8 7 8 9 8 8 9 9 6 5 4 3 5 4 6 5 4 3 4 5 5 4 3 4 3 3 3 4 4 5 5 4 4 5 6 9 9 7 12 13 13 13
11 9 11 9 10 11 11 12 12 13 12 11 9 8 7 7 7 7 7 6 7 7 7 6 7 8 8 10 9 9 11 11 11 11 10 11 9 9 10 11 10 9 7 7 8 6 8 9 7 7 9 8 7 6 4 4 4 4 4 5 4 4 4 3 3 2 2 3 3 3 3 4 3 5 4 4 4 3 7 8 9 12 7 11 11
10 11 11 12 13 11 11 12 11 10 11 11 10 9 7 7 6 6 6 8 8 7 6 7 8 7 8 9 11 11 8 10 10 10 9 9 9 10 9 11 11 11 10 9 8 7 4 6 9 6 9 11 8 8 7 5 4 4 4 4 4 4 4 3 3 3 3 2 2 2 2 2 3 4 4 4 3 4 3 5 9 10 11 9 8
9 11 9 9 7 8 9 10 10 9 9 9 8 7 5 5 6 6 7 8 8 7 7 7 8 8 8 8 8 9 11 10 9 10 9 7 6 6 7 7 9 10 8 7 7 8 8 5 7 7 3 5 9 8 7 6 5 4 4 3 3 4 3 3 3 3 2 1 1 1 1 2 2 3 3 3 3 3 3 3 4 4 6 10 11
8 7 8 7 8 7 7 7 9 9 6 6 6 6 6 7 7 6 6 9 8 7 7 7 6 7 8 8 9 8 8 10 12 10 10 12 11 10 8 7 7 7 10 10 8 9 11 10 8 9 9 6 6 8 8 9 7 6 4 4 4 3 3 3 3 2 0 0 1 2 1 1 3 2 3 3 4 3 3 3 3 4 3 7 11
6 8 9 10 10 12 10 12 10 8 8 8 8 9 9 6 5 9 11 8 7 6 7 7 7 7 6 6 7 8 10 10 9 9 9 8 9 10 13 12 11 11 11 13 12 12 11 12 10 7 11 11 6 7 8 9 10 6 3 3 3 3 3 1 2 2 0 1 1 2 2 0 1 2 2 2 3 3 3 3 2 2 4 4 6
11 10 12 14 12 8 9 10 6 8 10 11 10 9 9 10 10 10 9 6 6 7 7 5 6 4 4 5 6 6 7 8 8 10 10 10 9 6 7 10 12 11 11 11 11 7 8 8 9 9 5 10 9 11 11 11 4 8 7 2 3 2 1 2 2 2 1 1 1 2 3 2 0 0 1 2 2 2 2 1 2 2 3 4 4
9 10 9 5 6 8 9 8 9 10 10 10 9 10 8 6 7 5 8 4 3 5 5 3 4 5 4 4 5 6 7 7 8 7 8 10 11 11 9 8 8 9 10 9 10 10 11 12 13 12 10 4 5 8 12 10 6 6 4 6 3 2 2 2 3 4 3 2 1 3 3 3 2 0 0 0 1 1 0 0 1 2 2 3 3
4 5 7 9 8 8 8 9 10 9 9 9 9 6 5 4 1 2 2 4 4 4 4 2 4 4 6 5 5 5 6 7 8 9 8 6 5 6 7 9 12 10 10 12 14 14 12 11 11 10 10 9 7 10 11 9 7 13 6 3 2 2 1 10 7 3 3 3 3 4 3 4 3 2 1 3 3 2 1 0 1 1 2 3 3
7 8 8 9 8 11 11 10 9 9 7 6 7 5 5 4 3 3 4 3 3 2 4 5 5 5 4 5 7 5 6 6 7 8 8 8 7 7 8 9 9 10 10 10 11 14 16 15 16 14 15 14 11 8 10 9 9 8 7 8 2 1 8 1 6 4 2 4 4 4 4 5 4 4 4 5 3 3 2 2 1 1 1 2 3
8 8 5 5 5 6 5 5 5 5 7 7 7 7 8 9 7 6 5 4 5 4 9 10 7 8 9 5 5 6 7 7 7 8 10 9 9 9 10 10 11 11 10 10 10 9 12 14 16 15 16 13 14 12 11 9 8 11 7 2 2 7 8 4 7 7 1 4 2 5 6 6 5 5 5 5 5 5 3 4 2 3 2 2 3
3 0 2 4 4 4 5 5 6 5 5 6 7 7 6 7 10 11 10 11 10 7 3 3 6 6 6 7 7 6 7 7 7 6 7 10 12 11 10 11 13 13 12 12 11 13 13 15 13 13 15 11 10 12 15 13 6 9 9 7 2 2 5 10 7 5 3 4 6 6 7 7 6 6 7 6 6 5 5 4 4 4 4 3 3
1 2 4 4 5 4 4 5 4 5 4 5 7 8 9 8 8 8 8 8 9 8 5 5 4 4 6 7 5 6 6 6 7 7 8 8 8 9 9 8 8 11 12 13 14 13 12 12 14 14 11 11 14 14 13 11 16 13 13 11 4 0 5 1 1 9 5 7 8 4 4 7 6 8 8 8 8 7 7 6 5 5 5 4 3
1 3 3 3 2 2 3 4 5 5 5 6 7 7 8 8 9 8 8 7 5 4 3 3 5 5 5 5 7 7 7 7 7 7 7 7 7 8 8 9 10 8 7 9 11 12 15 16 15 12 11 10 11 11 11 14 14 13 12 11 6 3 3 2 1 1 4 4 4 10 11 3 5 9 9 8 6 7 7 7 7 6 6 5 5
1 0 1 1 2 3 4 4 4 4 5 6 6 7 6 6 7 7 9 7 4 3 3 5 5 4 6 6 6 7 7 7 7 6 5 5 5 5 7 8 8 8 9 10 9 10 12 12 14 15 16 15 12 12 14 13 14 13 13 12 10 5 3 2 4 8 4 6 8 9 11 12 12 13 8 8 7 7 6 6 6 6 6 6 6
1 0 1 1 1 3 4 4 4 4 4 6 6 7 6 6 8 8 9 8 6 6 5 5 4 4 7 6 6 7 5 7 6 6 6 5 5 6 6 5 6 8 9 9 10 11 11 13 14 14 14 16 13 14 12 11 10 11 11 11 13 14 15 13 13 10 10 7 5 6 8 12 17 10 9 10 8 8 7 6 7 7 7 7 6
Wind_Direction
200 188 197 227 163 147 133 126 128 127 124 119 114 110 104 97 93 89 87 84 82 79 76 75 75 75 79 83 84 89 89 89 87 80 77 73 72 79 78 76 73 74 77 83 85 83 80 78 79 79 79 82 80 78 78 78 77 80 81 80 80 78 71 71 66 61 65 77 81 82 84 83 82 80 77 75 75 73 69 67 66 67 69 71 72
168 192 171 211 165 154 139 133 132 126 117 115 114 110 105 101 97 93 89 87 84 83 83 81 80 78 81 84 86 87 87 90 84 84 82 76 74 78 81 79 75 73 77 81 83 77 77 76 76 80 82 83 83 82 79 79 81 82 84 85 82 74 67 62 58 67 75 77 77 80 84 86 84 81 79 80 79 77 77 78 76 72 73 77 77
143 156 165 191 163 168 142 137 132 125 122 120 114 111 109 106 102 98 92 91 90 89 89 87 86 89 87 87 92 93 95 88 87 92 87 84 86 82 81 81 78 77 81 88 85 83 81 79 80 81 84 82 78 78 82 84 85 86 87 86 76 60 56 55 53 51 49 67 76 74 70 74 80 83 84 82 82 82 82 82 82 80 79 79 72
140 153 159 188 176 175 143 139 127 126 124 122 120 116 113 108 107 102 96 92 94 92 92 90 88 91 93 90 93 94 87 89 84 79 85 87 88 92 89 83 82 83 92 90 86 84 82 83 84 88 89 88 85 84 85 86 84 85 86 82 64 60 57 55 54 51 50 50 47 44 56 69 69 79 82 82 79 71 63 66 73 78 80 80 79
138 149 160 173 174 176 152 136 132 127 126 125 124 121 117 113 108 106 105 99 96 95 94 93 91 90 94 96 93 93 99 90 87 92 88 87 93 93 92 91 90 94 95 92 91 87 85 85 87 92 93 91 90 88 85 84 86 87 82 72 62 58 57 57 54 51 47 43 37 41 54 69 76 82 87 85 79 74 75 75 74 74 75 78 79
143 147 158 158 154 158 142 145 135 132 129 128 125 121 119 114 110 107 104 103 100 97 96 95 92 90 94 98 102 103 94 93 93 93 92 89 85 85 88 89 89 92 93 94 92 88 84 85 93 97 96 94 93 91 89 86 84 84 82 70 63 58 53 49 46 42 36 31 31 31 31 54 92 99 90 88 84 78 78 79 78 77 77 73 73
138 147 148 145 145 143 144 147 139 137 133 131 131 127 123 118 113 112 109 106 104 100 99 100 99 96 93 95 102 99 90 89 95 97 96 95 94 94 90 89 93 101 105 101 92 84 83 87 95 96 97 94 91 87 87 87 86 84 81 72 63 59 54 50 46 45 44 37 41 43 55 60 55 72 89 87 85 82 82 78 76 72 68 68 70
131 143 141 143 145 145 146 149 145 138 137 133 132 132 126 121 117 115 112 110 108 105 104 103 103 101 99 100 96 92 92 85 85 88 96 98 98 91 89 90 95 98 95 94 91 87 88 92 95 94 90 91 91 89 87 86 82 78 73 68 65 61 57 53 47 46 47 48 46 50 57 59 65 73 80 80 77 75 72 75 70 71 71 70 69
144 150 138 143 153 149 150 151 146 144 140 136 136 137 131 125 122 120 117 113 111 110 109 108 107 107 106 103 101 100 99 95 91 91 91 93 93 94 94 97 100 107 105 101 93 91 92 95 97 98 98 94 92 90 90 87 83 79 75 71 67 63 58 53 48 44 42 47 52 60 60 65 79 80 84 84 78 73 70 68 67 71 73 70 70
150 152 146 150 158 159 151 154 150 146 142 141 142 139 134 130 128 125 121 118 114 114 113 112 110 108 107 100 94 102 102 95 96 95 94 94 95 95 96 100 105 105 106 102 95 93 96 98 97 97 97 94 91 92 93 93 89 86 81 75 70 65 59 53 46 40 48 46 50 61 72 79 71 81 87 81 79 78 75 72 74 73 72 70 68
157 157 151 156 162 163 158 156 151 147 145 144 146 141 138 136 131 130 126 122 120 118 116 115 113 112 111 108 102 102 109 101 101 101 100 97 95 94 96 101 107 114 106 102 100 101 100 98 99 99 98 94 95 97 94 93 90 81 75 71 67 62 59 53 41 42 44 47 51 58 68 78 78 85 86 85 84 80 75 75 73 73 71 68 66
158 155 153 158 167 167 164 154 152 149 147 149 148 145 141 140 138 135 132 128 126 123 121 119 118 116 114 112 109 105 104 109 107 111 107 105 102 100 99 101 111 113 109 104 101 102 104 101 100 103 99 98 98 97 93 86 82 79 74 71 67 61 53 47 47 48 48 53 56 62 65 66 78 90 86 84 83 79 77 75 72 70 69 67 66
157 155 156 158 168 176 164 159 154 153 153 153 151 148 146 145 143 140 137 134 131 128 126 124 121 120 119 116 114 111 110 107 106 106 101 102 108 108 106 107 113 111 112 110 105 106 106 105 103 102 102 102 97 95 88 84 79 76 72 69 66 62 56 49 50 54 57 60 62 58 68 79 80 90 90 85 80 78 74 72 71 69 68 67 67
150 158 158 163 168 178 166 163 157 155 157 155 155 152 150 148 147 143 140 138 134 132 130 128 127 125 123 121 119 118 116 113 111 112 114 114 112 110 108 110 117 116 111 107 107 109 109 108 106 99 99 98 99 91 84 80 75 71 67 66 64 59 50 46 44 48 53 58 62 63 66 80 92 89 86 83 80 77 75 70 68 68 69 70 71
158 159 160 161 168 172 170 168 162 159 158 158 156 155 154 152 150 148 146 142 140 138 136 134 132 129 128 126 124 122 120 118 119 121 121 121 118 117 116 119 122 119 117 117 110 110 109 108 108 104 100 100 95 86 81 76 71 67 66 65 59 53 46 50 41 38 41 36 29 54 80 91 96 87 84 81 78 78 73 71 71 71 73 73 74
158 158 158 165 168 165 167 175 169 162 159 159 157 158 158 155 154 154 151 148 146 144 143 141 138 136 133 131 128 127 126 122 120 120 123 122 121 117 120 123 125 124 120 117 114 110 111 110 108 103 99 95 90 85 81 78 72 66 60 60 56 53 48 54 45 40 38 45 51 62 77 102 95 91 88 85 82 79 79 77 75 75 77 77 75
157 158 162 167 166 168 168 171 175 168 160 159 160 160 160 158 159 156 155 152 149 148 147 147 143 141 138 135 132 125 123 124 125 126 127 125 123 124 127 126 126 127 123 120 118 117 113 113 109 102 97 95 92 87 84 80 74 67 61 60 58 54 52 57 53 40 49 55 68 63 65 86 94 95 91 90 87 84 83 82 81 81 79 77 79
162 163 170 168 168 171 169 168 164 171 164 161 163 162 163 161 161 157 156 155 151 149 149 150 148 143 139 134 126 125 131 131 131 133 134 131 126 130 127 126 129 128 124 116 114 118 115 113 109 103 98 95 93 90 86 82 76 70 64 60 58 53 49 53 58 50 56 63 64 66 76 100 103 98 94 91 90 90 89 86 82 82 81 80 79
166 176 170 169 174 171 172 165 165 163 168 163 163 167 164 164 158 160 159 156 152 149 149 149 146 143 136 135 133 130 127 127 132 133 126 122 131 129 129 129 135 134 120 113 118 120 117 116 108 101 98 96 94 92 88 84 78 73 67 62 55 55 50 49 50 58 61 60 63 65 84 108 105 100 95 90 90 91 89 85 84 84 87 88 85
170 180 177 178 173 175 164 157 170 173 170 168 168 167 169 163 160 161 161 158 153 150 147 145 143 140 138 138 131 122 117 120 120 118 127 132 126 126 130 132 134 134 128 120 127 121 120 115 108 102 97 94 92 89 89 87 82 76 69 65 60 56 49 47 52 52 55 58 58 66 97 108 102 101 98 96 92 91 93 95 93 87 82 83 85
173 189 184 183 179 173 169 162 167 176 174 171 168 168 171 162 162 160 162 160 155 151 145 139 137 138 137 132 125 118 118 117 113 119 119 116 121 126 127 133 135 131 122 126 130 126 124 117 112 103 91 86 80 76 78 86 83 80 73 66 64 57 47 51 52 51 56 58 68 87 102 100 97 97 96 94 95 94 92 89 89 91 92 90 90
176 183 193 188 180 183 175 166 163 179 177 172 172 164 152 165 160 163 161 159 153 145 139 141 139 139 136 133 120 119 123 121 114 111 119 125 120 124 129 133 134 121 125 130 130 127 121 120 110 97 94 87 76 73 66 68 74 80 73 71 66 63 48 49 48 48 54 61 78 100 111 107 99 98 95 95 95 94 93 95 97 94 90 90 89
196 189 187 194 189 187 181 181 183 181 179 178 166 150 162 164 162 163 161 155 151 147 145 143 145 146 148 136 125 123 121 121 124 125 121 125 129 129 130 130 125 118 128 132 130 127 121 109 98 95 90 83 76 74 69 71 71 71 71 68 68 57 58 51 47 46 50 63 89 112 109 101 98 94 94 92 94 96 96 94 92 95 98 94 90
196 195 188 190 189 192 185 188 187 183 181 182 160 153 158 165 164 163 160 155 155 153 148 150 150 153 149 139 135 127 122 120 121 120 115 111 119 126 127 125 124 124 108 111 111 108 103 98 95 89 80 76 79 69 70 63 70 70 71 69 66 59 56 50 46 37 30 53 95 103 98 96 96 97 98 101 101 97 98 98 97 97 94 92 94
196 181 186 191 195 192 188 192 189 187 186 183 172 166 162 169 170 167 165 162 158 156 155 154 158 158 149 146 143 136 132 129 129 127 128 127 123 121 124 129 125 86 85 83 81 84 85 91 85 78 78 82 81 69 61 65 60 77 75 72 70 61 61 52 46 45 36 71 119 111 104 100 96 98 99 99 99 99 100 104 104 101 99 101 100
178 192 194 189 192 194 193 190 190 191 190 185 184 178 177 181 177 171 166 157 166 164 163 161 162 162 154 148 140 137 138 137 141 141 137 138 134 137 135 132 112 103 103 99 88 92 94 99 99 93 86 82 83 83 72 50 56 72 87 85 86 75 63 56 43 43 22 356 65 105 101 105 109 108 104 104 103 105 107 103 103 102 101 102 102
196 205 194 195 189 192 194 191 193 190 194 188 185 178 182 185 181 175 170 171 173 168 172 167 171 163 160 155 151 152 149 149 148 149 148 145 145 149 148 143 125 121 124 118 110 97 102 105 106 107 105 97 85 78 80 80 57 46 53 82 88 89 80 67 49 39 10 9 5 69 122 110 104 108 115 108 107 106 106 108 108 110 111 108 107
212 209 203 201 191 194 193 191 195 192 193 189 188 179 186 188 185 175 183 177 178 178 176 174 168 168 166 165 159 157 156 157 158 156 159 153 156 153 150 142 132 130 131 126 124 116 106 101 108 107 105 98 101 87 80 63 72 69 47 32 47 70 85 85 74 54 21 30 28 16 102 106 116 115 111 109 113 113 111 115 117 111 110 111 110
221 214 208 205 202 195 190 196 195 195 193 189 193 188 192 194 184 185 189 175 187 185 178 172 173 172 171 167 162 158 160 160 164 164 154 163 157 157 157 155 144 142 136 132 133 131 119 118 112 108 104 105 103 99 94 80 67 66 79 52 26 35 41 68 80 63 46 47 28 26 98 123 119 120 120 118 117 116 116 117 115 113 111 111 108
219 215 211 214 206 196 196 199 197 195 194 190 194 191 193 198 191 189 192 177 191 186 177 178 178 173 176 177 173 168 170 168 167 162 163 166 165 161 159 160 155 152 144 143 148 135 135 126 117 115 111 104 97 93 100 87 75 76 77 82 45 26 22 23 52 67 60 50 34 37 34 57 125 126 120 123 123 120 119 116 118 117 116 114 111
213 221 218 215 207 203 206 201 202 200 196 197 195 195 192 200 195 189 191 189 187 186 187 182 178 181 179 179 179 177 171 170 168 168 170 164 167 169 170 159 154 160 149 139 141 140 138 139 143 139 131 118 105 104 108 103 92 68 76 82 62 45 32 8 22 44 58 51 46 42 33 39 38 115 125 126 126 126 128 125 124 123 122 120 123
207 219 216 207 206 213 211 205 201 201 204 202 198 197 195 198 196 190 192 189 185 191 191 188 185 182 178 181 182 181 175 174 172 171 174 170 172 176 171 167 167 159 151 144 138 136 134 130 126 126 128 123 114 93 85 107 99 85 79 58 83 63 33 16 18 30 49 52 55 48 50 36 38 43 109 131 131 133 132 134 135 135 134 134 133
219 219 212 201 211 211 211 211 206 207 209 205 201 202 198 197 197 195 190 183 188 190 194 194 188 184 181 184 187 184 179 175 180 177 175 177 175 175 177 181 170 162 154 149 137 132 126 126 121 122 121 121 119 108 94 93 102 99 93 75 90 86 53 21 14 17 37 50 54 61 58 46 40 43 37 60 138 138 140 140 137 138 136 134 131
219 216 202 213 211 209 210 208 205 210 212 210 204 203 204 200 199 196 189 186 189 192 196 195 193 190 186 186 188 188 186 183 177 182 178 178 180 181 181 181 175 166 157 154 151 149 142 139 142 133 138 140 141 139 134 120 105 100 89 90 77 67 92 64 16 4 2 44 45 69 64 61 50 47 29 30 34 113 145 144 144 141 142 141 139
222 209 210 215 203 210 201 210 205 210 208 211 208 207 201 203 201 197 192 190 194 196 193 196 195 194 192 190 190 187 189 187 184 179 184 182 181 185 187 185 174 168 164 167 158 155 149 152 153 141 133 118 123 137 134 134 135 123 111 102 83 76 67 81 30 5 12 2 36 59 65 64 66 54 40 28 27 28 30 154 150 148 148 147 148
216 216 216 201 208 209 203 210 204 210 209 209 209 206 202 203 205 203 197 195 198 201 197 194 197 195 193 196 193 191 190 190 186 184 183 185 183 183 187 181 176 168 170 164 162 164 161 153 162 150 143 140 136 123 109 125 125 123 120 103 83 75 69 77 55 16 350 353 20 39 56 68 67 66 57 39 40 14 34 37 123 161 157 149 149
216 211 208 201 209 205 203 207 207 207 209 208 208 207 199 204 205 204 205 199 206 207 200 196 198 200 197 193 193 193 194 194 190 189 189 186 186 186 183 183 178 172 169 175 170 171 164 155 156 162 148 144 146 136 118 107 102 82 82 90 60 79 74 67 75 37 351 25 6 10 42 59 66 73 55 60 37 12 26 32 55 50 48 164 154
219 215 209 202 206 198 199 205 208 205 205 205 205 205 202 199 203 206 206 210 212 210 211 201 204 205 202 203 191 190 192 198 192 190 192 197 192 187 191 182 174 172 173 176 175 152 158 162 151 168 158 149 155 152 139 112 102 99 78 65 52 77 69 65 65 53 35 5 2 19 8 21 73 70 72 66 45 33 25 21 39 48 55 49 139
219 216 210 211 206 200 200 206 205 200 202 199 198 199 188 192 196 203 212 217 215 212 205 211 210 200 205 202 199 198 188 191 199 188 189 192 198 195 182 185 181 167 160 164 158 151 148 171 165 147 134 133 141 132 126 122 108 87 74 59 63 65 63 71 53 78 60 346 324 335 349 15 44 45 71 59 55 44 32 28 35 57 44 53 58
220 214 212 204 205 202 199 203 204 197 188 183 172 183 181 190 197 211 229 222 215 210 210 214 211 213 201 197 199 199 203 199 192 196 203 193 190 187 179 174 181 174 162 167 170 170 167 164 171 152 134 109 101 123 129 123 99 81 67 52 35 34 47 77 73 49 34 29 339 325 357 355 38 38 46 45 52 40 37 22 47 58 58 54 57
217 209 206 206 201 201 187 202 198 183 177 179 182 183 190 195 208 208 216 213 214 209 211 214 216 219 207 201 201 201 195 201 205 193 188 204 206 193 183 179 180 181 180 185 180 178 178 169 154 155 151 139 134 143 140 130 122 85 41 48 38 10 15 352 97 100 2 337 335 319 312 21 27 44 10 39 55 43 37 24 31 51 64 76 52
218 202 205 207 204 196 195 202 176 188 192 191 188 189 193 197 195 207 207 202 206 209 216 209 217 220 216 210 202 200 198 198 201 201 196 185 196 213 207 191 181 188 187 175 167 165 161 156 148 139 181 161 157 165 160 134 152 163 151 152 6 342 15 350 315 226 152 247 320 309 316 297 274 6 2 42 50 59 33 14 31 57 68 73 68
212 201 213 199 195 196 203 194 189 190 199 193 182 195 196 198 193 200 189 208 227 212 212 197 194 214 228 225 219 208 202 201 197 210 214 200 190 185 188 187 190 184 177 175 166 168 174 170 168 163 157 171 144 172 171 181 137 128 106 94 221 139 273 314 282 262 209 172 234 258 275 288 278 316 336 27 118 75 71 20 53 81 82 88 87
226 204 200 200 198 202 201 196 194 195 194 195 194 194 180 165 134 137 158 163 188 187 195 183 187 198 223 224 240 225 215 208 200 201 205 207 192 189 182 184 190 191 200 189 178 175 172 171 173 172 158 153 171 186 193 186 149 139 167 206 127 115 331 240 211 252 199 200 182 229 232 246 267 284 314 220 223 218 227 89 152 114 112 109 104
213 210 199 200 198 202 203 196 192 194 192 182 182 159 129 126 101 66 71 74 45 94 169 220 210 212 217 214 225 229 236 231 218 204 200 207 202 192 185 186 192 196 193 196 192 181 180 179 177 174 182 172 174 178 192 196 191 206 133 133 104 277 223 358 140 253 170 243 231 229 235 236 234 233 229 239 251 237 213 203 187 186 159 126 116
217 219 207 207 201 212 201 195 184 180 187 183 173 162 175 174 169 175 193 195 211 182 203 205 199 207 216 202 204 210 222 231 231 225 212 211 218 211 199 190 192 191 196 195 191 188 184 185 188 185 188 191 171 164 181 207 204 220 227 307 224 182 170 179 136 236 51 226 250 227 233 232 220 223 230 236 231 229 216 204 194 200 203 177 147
255 300 196 202 207 205 197 190 189 184 176 174 171 170 180 189 193 200 204 204 212 224 202 193 193 211 202 208 211 209 216 222 226 221 228 218 210 210 217 212 200 194 190 189 192 194 193 193 189 193 193 174 155 173 183 188 184 242 239 231 55 340 141 138 195 79 239 223 217 227 240 229 226 223 222 227 225 219 222 203 199 203 205 195 172
238 173 192 194 201 205 185 192 179 169 177 169 177 185 189 193 200 212 212 216 214 220 188 202 191 179 200 211 208 215 214 220 222 225 218 219 224 217 207 211 218 200 189 197 198 198 195 195 193 196 182 179 181 182 182 177 184 209 212 219 202 51 200 21 151 181 149 168 220 229 261 229 234 234 216 214 215 211 210 208 199 199 198 202 193
218 187 196 192 184 172 167 164 176 168 180 177 182 196 198 194 201 204 220 227 221 222 180 186 186 184 203 209 209 214 214 216 221 219 221 221 221 219 215 216 203 207 206 210 204 197 195 187 183 186 189 193 195 192 176 189 197 205 184 216 182 133 138 57 26 44 142 149 226 197 216 175 253 246 231 218 214 211 210 205 199 191 190 197 195
254 183 167 145 159 151 163 166 188 180 179 183 188 196 200 191 202 211 220 225 204 198 166 202 204 190 214 212 215 217 216 221 222 226 226 223 218 228 217 213 216 200 192 206 206 199 197 195 193 192 188 187 194 194 196 197 201 204 193 191 178 123 120 192 216 198 253 207 188 199 203 188 208 231 201 220 211 214 216 213 205 195 197 196 197
28 102 110 151 154 166 174 180 198 180 177 187 185 198 200 198 209 209 216 219 207 198 206 227 213 210 221 220 216 223 222 226 221 227 226 221 225 219 227 235 217 203 195 200 200 195 195 194 194 195 196 194 195 198 205 208 202 204 197 192 195 187 189 187 196 195 191 180 178 218 197 198 210 212 208 201 199 205 206 208 207 201 198 201 199